sat.trackr.live / text

‹ back to catalog

STARLINK-3943

NORAD 52557 · 2022-051AA

PAYLOAD ACTIVE UNKNOWN

§ Identity

Operator
Country
US
Launch date
2022-05-13
Launch site
AFWTR
Launch vehicle
Mass (kg)
RCS (m²)

Purposes: comms

External: N2YO · Heavens-Above · Gunter

§ Orbital elements

Epoch: 2026-05-25T03:48:14.202144Z

Period
95.44 min
Inclination
53.2149°
Eccentricity
0.0001013
Mean motion
15.08834344 rev/d
Perigee alt
539.1 km
Apogee alt
540.5 km
Semi-major
6,917.9 km
B*
-9.4259e-5
RAAN
145.8404°
Arg perigee
84.7354°
Mean anomaly
275.3754°
Rev number
22,299

§ Raw data

STARLINK-39431 52557U 22051AA  26145.15849771 -.00001787  00000+0 -94259-4 0  99912 52557  53.2149 145.8404 0001013  84.7354 275.3754 15.08834344222999

JSON: /api/v1/satellites/52557 · /tle

For live sub-satellite position, see the globe view (requires WebGL).

§ Visibility from observer

Set your observer location to see the next 7 days of passes ≥ 10°. The values pass through the URL so the page stays shareable.

No JS? Fill the form by hand. The geolocation button needs JavaScript.